THY2TK EVRA-LTFM

Flight info

Callsign THY2TK
Flight time N/A
Altitude 33000
Route BERIL DCT UBORU/N0457F350 DCT BOKSU/N0457F340 DCT TOXAR DCT ROBTU/N0460F350 DCT KENIN DCT LARMU DCT RUTUV DCT RONBU DCT BUVAK DCT RIXEN
Aircraft B738/M-SDE2E3FGHIRWXY/LB1

Departure

Time N/A
Airport Riga International Airport (EVRA)

Arrival

Time 2026-05-01 09:16
Airport İstanbul Airport (LTFM)
Time Latitude Longitude Altitude Speed Heading
2026-05-01 07:23 52.72740 22.61007 34319 ft 517 kts 184°
2026-05-01 07:24 52.62051 22.58603 34321 ft 517 kts 184°
2026-05-01 07:24 52.54919 22.57006 34319 ft 517 kts 184°
2026-05-01 07:25 52.47776 22.55411 34316 ft 518 kts 184°
2026-05-01 07:25 52.40640 22.53823 34327 ft 517 kts 184°
2026-05-01 07:26 52.33501 22.52239 34323 ft 518 kts 184°
2026-05-01 07:26 52.26358 22.50660 34320 ft 518 kts 184°
2026-05-01 07:27 52.19209 22.49084 34320 ft 518 kts 184°
2026-05-01 07:27 52.12058 22.47514 34322 ft 518 kts 184°
2026-05-01 07:28 52.04914 22.45949 34327 ft 518 kts 184°
2026-05-01 07:28 51.97766 22.44389 34324 ft 518 kts 184°
2026-05-01 07:29 51.90623 22.42835 34327 ft 518 kts 184°
2026-05-01 07:29 51.83474 22.41285 34327 ft 518 kts 183°
2026-05-01 07:30 51.76322 22.39739 34331 ft 518 kts 183°
2026-05-01 07:30 51.69176 22.38199 34331 ft 518 kts 183°
2026-05-01 07:31 51.62078 22.36674 34340 ft 518 kts 183°
2026-05-01 07:32 51.44199 22.32856 34339 ft 518 kts 183°
2026-05-01 07:33 51.33474 22.30579 34343 ft 519 kts 182°
2026-05-01 07:33 51.22728 22.28309 34344 ft 519 kts 182°
2026-05-01 07:34 51.11980 22.26049 34347 ft 519 kts 182°
2026-05-01 07:35 51.04811 22.24548 34349 ft 519 kts 182°
2026-05-01 07:35 50.97641 22.23051 34355 ft 520 kts 182°
2026-05-01 07:36 50.90470 22.21558 34358 ft 520 kts 182°
2026-05-01 07:36 50.83297 22.20070 34358 ft 520 kts 182°
2026-05-01 07:37 50.72541 22.17847 34362 ft 520 kts 182°
2026-05-01 07:37 50.65411 22.16378 34368 ft 520 kts 182°
2026-05-01 07:38 50.58245 22.14907 34363 ft 520 kts 182°
2026-05-01 07:39 50.47485 22.12707 34367 ft 520 kts 182°
2026-05-01 07:39 50.36720 22.10517 34372 ft 520 kts 181°
2026-05-01 07:40 50.29544 22.09062 34375 ft 520 kts 181°
2026-05-01 07:40 50.22362 22.07609 34376 ft 520 kts 181°
2026-05-01 07:41 50.15183 22.06163 34373 ft 520 kts 181°
2026-05-01 07:42 50.04406 22.03999 34380 ft 520 kts 181°
2026-05-01 07:42 49.97218 22.02561 34370 ft 520 kts 181°
2026-05-01 07:43 49.90033 22.01128 34373 ft 520 kts 181°
2026-05-01 07:43 49.79264 21.98988 34362 ft 520 kts 181°
2026-05-01 07:44 49.64916 21.96152 34374 ft 519 kts 181°
2026-05-01 07:45 49.57750 21.94742 34380 ft 519 kts 181°
2026-05-01 07:45 49.50589 21.93338 34361 ft 518 kts 180°
2026-05-01 07:46 49.43438 21.91940 34374 ft 518 kts 180°
2026-05-01 07:47 49.32751 21.89857 34365 ft 518 kts 180°
2026-05-01 07:47 49.25600 21.88468 34367 ft 518 kts 180°
2026-05-01 07:48 49.14875 21.86393 34357 ft 518 kts 180°
2026-05-01 07:48 49.07725 21.85015 34366 ft 518 kts 180°
2026-05-01 07:49 48.96992 21.82954 34375 ft 518 kts 180°
2026-05-01 07:50 48.89838 21.81752 34362 ft 513 kts 174°
2026-05-01 07:50 48.84027 21.82411 34377 ft 499 kts 162°
2026-05-01 07:50 48.80594 21.83207 34365 ft 500 kts 162°
2026-05-01 07:51 48.77151 21.84016 34476 ft 502 kts 162°
2026-05-01 07:51 48.73702 21.84802 34734 ft 500 kts 163°
2026-05-01 07:51 48.70264 21.85556 35034 ft 498 kts 164°
2026-05-01 07:52 48.63407 21.87009 35359 ft 499 kts 165°
2026-05-01 07:52 48.56514 21.88453 35362 ft 499 kts 165°
2026-05-01 07:53 48.46266 21.90595 35360 ft 493 kts 165°
2026-05-01 07:53 48.39525 21.92172 35353 ft 484 kts 158°
2026-05-01 07:54 48.33424 21.95863 35376 ft 467 kts 141°
2026-05-01 07:55 48.25592 22.04406 35373 ft 467 kts 135°
2026-05-01 07:56 48.12483 22.19037 35361 ft 471 kts 136°
2026-05-01 07:57 48.04558 22.27761 35360 ft 471 kts 136°
2026-05-01 07:58 47.94000 22.39341 35360 ft 470 kts 136°
2026-05-01 07:59 47.83488 22.50813 35363 ft 469 kts 137°
2026-05-01 08:00 47.67677 22.67960 35372 ft 469 kts 137°
2026-05-01 08:01 47.57121 22.79334 35365 ft 469 kts 138°
2026-05-01 08:02 47.49182 22.87851 35370 ft 471 kts 138°
2026-05-01 08:03 47.41205 22.96377 35352 ft 473 kts 139°
2026-05-01 08:03 47.33192 23.04908 35338 ft 474 kts 139°
2026-05-01 08:04 47.22991 23.17110 35336 ft 472 kts 134°
2026-05-01 08:05 47.15449 23.26473 35335 ft 474 kts 135°
2026-05-01 08:06 47.07866 23.35710 35335 ft 474 kts 135°
2026-05-01 08:07 46.97677 23.48031 35333 ft 475 kts 136°
2026-05-01 08:08 46.90027 23.57246 35343 ft 475 kts 136°
2026-05-01 08:09 46.79778 23.69539 35350 ft 475 kts 136°
2026-05-01 08:09 46.74672 23.75639 35350 ft 475 kts 137°
2026-05-01 08:10 46.64450 23.87806 35341 ft 474 kts 137°
2026-05-01 08:11 46.54253 23.99883 35320 ft 474 kts 137°
2026-05-01 08:12 46.46571 24.08940 35335 ft 474 kts 138°
2026-05-01 08:13 46.38886 24.17969 35334 ft 474 kts 138°
2026-05-01 08:13 46.31182 24.26985 35334 ft 475 kts 139°
2026-05-01 08:14 46.26036 24.32990 35339 ft 476 kts 139°
2026-05-01 08:14 46.20881 24.38989 35331 ft 476 kts 139°
2026-05-01 08:15 46.13135 24.47975 35322 ft 477 kts 139°
2026-05-01 08:16 46.07962 24.53958 35315 ft 477 kts 139°
2026-05-01 08:16 46.02783 24.59934 35321 ft 477 kts 139°
2026-05-01 08:17 45.97593 24.65906 35320 ft 477 kts 140°
2026-05-01 08:17 45.92397 24.71871 35321 ft 478 kts 140°
2026-05-01 08:18 45.87203 24.77820 35325 ft 478 kts 140°
2026-05-01 08:19 45.76835 24.89649 35328 ft 478 kts 140°
2026-05-01 08:19 45.71625 24.95571 35328 ft 478 kts 140°
2026-05-01 08:20 45.66415 25.01479 35328 ft 478 kts 140°
2026-05-01 08:20 45.61202 25.07377 35336 ft 478 kts 140°
2026-05-01 08:21 45.55985 25.13264 35324 ft 478 kts 140°
2026-05-01 08:21 45.50763 25.19142 35332 ft 478 kts 141°
2026-05-01 08:22 45.45535 25.25014 35326 ft 478 kts 141°
2026-05-01 08:22 45.40310 25.30866 35330 ft 478 kts 141°
2026-05-01 08:23 45.35078 25.36714 35324 ft 478 kts 141°
2026-05-01 08:23 45.29844 25.42550 35324 ft 478 kts 141°
2026-05-01 08:24 45.24605 25.48376 35327 ft 479 kts 141°
2026-05-01 08:24 45.19350 25.54206 35321 ft 479 kts 141°
2026-05-01 08:25 45.14123 25.59992 35324 ft 480 kts 141°
2026-05-01 08:25 45.08855 25.65809 35323 ft 481 kts 141°
2026-05-01 08:26 45.03575 25.71625 35322 ft 481 kts 141°
2026-05-01 08:26 44.98291 25.77432 35318 ft 482 kts 141°
2026-05-01 08:27 44.92993 25.83240 35318 ft 482 kts 142°
2026-05-01 08:27 44.87697 25.89031 35325 ft 481 kts 142°
2026-05-01 08:28 44.82410 25.94800 35327 ft 480 kts 142°
2026-05-01 08:28 44.77127 26.00550 35336 ft 480 kts 142°
2026-05-01 08:29 44.71845 26.06285 35335 ft 479 kts 142°
2026-05-01 08:29 44.66577 26.11992 35350 ft 478 kts 143°
2026-05-01 08:30 44.61311 26.17683 35348 ft 477 kts 143°
2026-05-01 08:30 44.56044 26.23361 35348 ft 477 kts 143°
2026-05-01 08:31 44.50774 26.29031 35342 ft 477 kts 143°
2026-05-01 08:31 44.45504 26.34686 35339 ft 478 kts 143°
2026-05-01 08:32 44.40217 26.40346 35332 ft 478 kts 143°
2026-05-01 08:32 44.35821 26.45043 35328 ft 479 kts 143°
2026-05-01 08:33 44.30522 26.50692 35314 ft 479 kts 143°
2026-05-01 08:33 44.25216 26.56335 35313 ft 480 kts 143°
2026-05-01 08:34 44.19903 26.61974 35304 ft 480 kts 143°
2026-05-01 08:34 44.14596 26.67592 35309 ft 479 kts 144°
2026-05-01 08:35 44.09285 26.73202 35304 ft 478 kts 144°
2026-05-01 08:35 44.03983 26.78789 35292 ft 478 kts 144°
2026-05-01 08:36 43.98686 26.84358 35291 ft 477 kts 144°
2026-05-01 08:36 43.93396 26.89907 35289 ft 476 kts 144°
2026-05-01 08:37 43.88109 26.95440 35294 ft 476 kts 144°
2026-05-01 08:37 43.82825 27.00957 35292 ft 476 kts 144°
2026-05-01 08:38 43.77532 27.06472 35293 ft 476 kts 145°
2026-05-01 08:38 43.72234 27.11979 35286 ft 477 kts 145°
2026-05-01 08:39 43.66931 27.17478 35280 ft 477 kts 145°
2026-05-01 08:39 43.61622 27.22972 35293 ft 477 kts 145°
2026-05-01 08:40 43.53678 27.31168 35271 ft 478 kts 145°
2026-05-01 08:40 43.48352 27.36648 35266 ft 478 kts 145°
2026-05-01 08:41 43.43026 27.42116 35273 ft 477 kts 145°
2026-05-01 08:41 43.37705 27.47567 35262 ft 477 kts 146°
2026-05-01 08:42 43.32382 27.53007 35271 ft 477 kts 146°
2026-05-01 08:42 43.27059 27.58435 35264 ft 476 kts 146°
2026-05-01 08:43 43.21739 27.63847 35268 ft 476 kts 146°
2026-05-01 08:43 43.16413 27.69255 35265 ft 476 kts 146°
2026-05-01 08:44 43.11090 27.74647 35270 ft 476 kts 146°
2026-05-01 08:44 43.05762 27.80032 35264 ft 476 kts 146°
2026-05-01 08:45 43.00431 27.85408 35263 ft 476 kts 147°
2026-05-01 08:45 42.95103 27.90770 35260 ft 476 kts 147°
2026-05-01 08:46 42.89775 27.96119 35263 ft 475 kts 147°
2026-05-01 08:46 42.84450 28.01454 35265 ft 475 kts 147°
2026-05-01 08:47 42.79130 28.06772 35261 ft 474 kts 147°
2026-05-01 08:47 42.73846 28.12043 35265 ft 474 kts 147°
2026-05-01 08:48 42.68485 28.17379 35252 ft 474 kts 148°
2026-05-01 08:48 42.63202 28.22626 35251 ft 473 kts 148°
2026-05-01 08:49 42.57885 28.27895 35252 ft 473 kts 148°
2026-05-01 08:49 42.52573 28.33149 35248 ft 472 kts 148°
2026-05-01 08:50 42.47267 28.38385 35244 ft 471 kts 148°
2026-05-01 08:50 42.41964 28.43607 35233 ft 471 kts 148°
2026-05-01 08:51 42.36667 28.48812 35234 ft 470 kts 149°
2026-05-01 08:51 42.31379 28.53997 35225 ft 469 kts 149°
2026-05-01 08:52 42.26095 28.59167 35228 ft 468 kts 149°
2026-05-01 08:52 42.23447 28.61753 34918 ft 474 kts 149°
2026-05-01 08:52 42.20776 28.64359 34388 ft 472 kts 149°
2026-05-01 08:53 42.18121 28.66950 33593 ft 471 kts 150°
2026-05-01 08:53 42.15473 28.69532 32903 ft 468 kts 150°
2026-05-01 08:53 42.12835 28.72098 32172 ft 467 kts 150°
2026-05-01 08:53 42.10084 28.74301 31446 ft 453 kts 164°
2026-05-01 08:54 42.07111 28.75408 30847 ft 436 kts 178°
2026-05-01 08:54 42.04160 28.75584 30628 ft 414 kts 189°
2026-05-01 08:54 42.01351 28.75028 29917 ft 408 kts 195°
2026-05-01 08:54 41.98571 28.74300 29123 ft 406 kts 195°
2026-05-01 08:55 41.95800 28.73553 28305 ft 407 kts 195°
2026-05-01 08:55 41.93020 28.72807 27455 ft 408 kts 195°
2026-05-01 08:55 41.90232 28.72071 26639 ft 409 kts 195°
2026-05-01 08:55 41.87463 28.71355 26058 ft 403 kts 195°
2026-05-01 08:56 41.84696 28.70646 25451 ft 408 kts 195°
2026-05-01 08:56 41.81895 28.69930 24849 ft 421 kts 195°
2026-05-01 08:56 41.79009 28.69198 24213 ft 420 kts 195°
2026-05-01 08:56 41.76147 28.68479 23527 ft 416 kts 195°
2026-05-01 08:57 41.73313 28.67769 22814 ft 412 kts 195°
2026-05-01 08:57 41.70509 28.67068 22187 ft 407 kts 195°
2026-05-01 08:57 41.67742 28.66375 21557 ft 403 kts 195°
2026-05-01 08:57 41.64997 28.65687 20944 ft 399 kts 194°
2026-05-01 08:58 41.62278 28.65006 20340 ft 396 kts 194°
2026-05-01 08:58 41.59581 28.64329 19746 ft 393 kts 194°
2026-05-01 08:58 41.56897 28.63657 19158 ft 391 kts 194°
2026-05-01 08:58 41.54257 28.62995 18557 ft 392 kts 194°
2026-05-01 08:59 41.51572 28.62322 17863 ft 392 kts 194°
2026-05-01 08:59 41.48896 28.61653 17240 ft 391 kts 194°
2026-05-01 08:59 41.46205 28.60980 16633 ft 395 kts 194°
2026-05-01 08:59 41.43504 28.60306 16018 ft 394 kts 194°
2026-05-01 09:00 41.40808 28.59636 15421 ft 391 kts 194°
2026-05-01 09:00 41.38142 28.58973 14809 ft 389 kts 194°
2026-05-01 09:00 41.35487 28.58314 14209 ft 387 kts 193°
2026-05-01 09:00 41.32845 28.57656 13537 ft 385 kts 194°
2026-05-01 09:01 41.30220 28.57006 12912 ft 382 kts 193°
2026-05-01 09:01 41.27655 28.56369 12306 ft 379 kts 193°
2026-05-01 09:01 41.25058 28.55725 11550 ft 381 kts 192°
2026-05-01 09:01 41.22467 28.55082 11199 ft 374 kts 192°
2026-05-01 09:02 41.19941 28.54458 10974 ft 362 kts 192°
2026-05-01 09:02 41.17511 28.53858 10798 ft 349 kts 192°
2026-05-01 09:02 41.15159 28.53278 10646 ft 337 kts 192°
2026-05-01 09:02 41.12894 28.52718 10500 ft 326 kts 191°
2026-05-01 09:03 41.10694 28.52174 10356 ft 316 kts 191°
2026-05-01 09:03 41.08553 28.51645 10160 ft 309 kts 191°
2026-05-01 09:03 41.06492 28.51137 10004 ft 293 kts 191°
2026-05-01 09:03 41.04548 28.50658 9904 ft 277 kts 191°
2026-05-01 09:04 41.02670 28.50195 9531 ft 271 kts 191°
2026-05-01 09:04 41.00841 28.49744 9251 ft 264 kts 190°
2026-05-01 09:04 40.99063 28.49306 9012 ft 258 kts 189°
2026-05-01 09:04 40.97329 28.48879 8758 ft 257 kts 189°
2026-05-01 09:05 40.95561 28.48445 8513 ft 259 kts 189°
2026-05-01 09:05 40.93773 28.48007 8350 ft 263 kts 189°
2026-05-01 09:05 40.91976 28.47574 8247 ft 270 kts 186°
2026-05-01 09:05 40.90142 28.47771 8080 ft 262 kts 155°
2026-05-01 09:06 40.88707 28.49065 7966 ft 243 kts 124°
2026-05-01 09:06 40.87940 28.50979 7791 ft 233 kts 99°
2026-05-01 09:06 40.87767 28.53081 7569 ft 231 kts 82°
2026-05-01 09:06 40.88123 28.55135 7358 ft 229 kts 69°
2026-05-01 09:07 40.88638 28.57132 7150 ft 230 kts 68°
2026-05-01 09:07 40.89179 28.59134 6930 ft 232 kts 67°
2026-05-01 09:07 40.89719 28.61146 6695 ft 232 kts 68°
2026-05-01 09:07 40.90248 28.63156 6462 ft 230 kts 68°
2026-05-01 09:08 40.90764 28.65133 6249 ft 226 kts 68°
2026-05-01 09:08 40.91270 28.67082 6051 ft 222 kts 68°
2026-05-01 09:08 40.91967 28.68858 5824 ft 216 kts 46°
2026-05-01 09:08 40.93113 28.70085 5640 ft 211 kts 31°
2026-05-01 09:09 40.94392 28.71038 5465 ft 211 kts 29°
2026-05-01 09:09 40.95683 28.71965 5265 ft 211 kts 29°
2026-05-01 09:09 40.96962 28.72890 5089 ft 207 kts 29°
2026-05-01 09:09 40.98311 28.73447 5004 ft 205 kts
2026-05-01 09:10 40.99724 28.73321 4989 ft 203 kts
2026-05-01 09:10 41.01126 28.73269 4994 ft 200 kts
2026-05-01 09:10 41.02516 28.73237 4994 ft 201 kts
2026-05-01 09:10 41.03942 28.73210 4795 ft 210 kts
2026-05-01 09:11 41.05418 28.73183 4517 ft 213 kts
2026-05-01 09:11 41.06900 28.73153 4224 ft 214 kts
2026-05-01 09:11 41.08393 28.73123 3924 ft 217 kts
2026-05-01 09:11 41.09903 28.73094 3627 ft 216 kts
2026-05-01 09:12 41.11388 28.73064 3338 ft 209 kts
2026-05-01 09:12 41.12799 28.73036 3047 ft 201 kts
2026-05-01 09:12 41.14186 28.73008 2798 ft 193 kts
2026-05-01 09:12 41.15500 28.72983 2528 ft 183 kts
2026-05-01 09:13 41.16737 28.72959 2243 ft 172 kts
2026-05-01 09:13 41.17865 28.72936 2039 ft 158 kts
2026-05-01 09:13 41.18899 28.72913 1810 ft 140 kts
2026-05-01 09:13 41.19796 28.72896 1675 ft 122 kts
2026-05-01 09:14 41.20641 28.72883 1495 ft 119 kts
2026-05-01 09:14 41.21476 28.72868 1311 ft 120 kts
2026-05-01 09:14 41.22329 28.72852 1135 ft 126 kts
2026-05-01 09:14 41.23206 28.72836 954 ft 125 kts
2026-05-01 09:15 41.24039 28.72817 771 ft 113 kts
2026-05-01 09:15 41.24832 28.72769 653 ft 119 kts
2026-05-01 09:15 41.25697 28.72766 509 ft 127 kts
2026-05-01 09:15 41.26561 28.72763 337 ft 120 kts
2026-05-01 09:16 41.27273 28.72755 333 ft 76 kts 359°
2026-05-01 09:16 41.27707 28.72746 330 ft 54 kts 359°
2026-05-01 09:16 41.28002 28.72787 329 ft 29 kts 25°
2026-05-01 09:17 41.28120 28.72880 331 ft 8 kts 47°
2026-05-01 09:17 41.28110 28.72946 330 ft 8 kts 140°
2026-05-01 09:17 41.28088 28.72957 331 ft 0 kts 171°
2026-05-01 09:19 41.28084 28.72958 330 ft 2 kts 171°
2026-05-01 09:19 41.28060 28.72960 332 ft 5 kts 176°
2026-05-01 09:19 41.28010 28.72963 330 ft 9 kts 179°
2026-05-01 09:20 41.27831 28.72967 330 ft 17 kts 179°
2026-05-01 09:20 41.27598 28.72972 329 ft 23 kts 178°
2026-05-01 09:21 41.27290 28.72980 332 ft 22 kts 179°
2026-05-01 09:21 41.27142 28.72983 329 ft 21 kts 179°
2026-05-01 09:21 41.26955 28.73122 333 ft 18 kts 88°
2026-05-01 09:22 41.26959 28.73436 333 ft 16 kts 89°
2026-05-01 09:22 41.26963 28.73728 333 ft 15 kts 89°
2026-05-01 09:23 41.26940 28.73854 333 ft 15 kts 146°
2026-05-01 09:23 41.26748 28.73876 332 ft 13 kts 178°
2026-05-01 09:24 41.26569 28.73880 328 ft 13 kts 179°
2026-05-01 09:24 41.26486 28.73904 331 ft 12 kts 161°
2026-05-01 09:24 41.26378 28.73944 332 ft 6 kts 196°
2026-05-01 09:25 41.26356 28.73934 331 ft 0 kts 197°